Location: Staunton
(38.1490°N, 79.0720°W)
Time: 02:48:33
(UTC-04:00)

ISS - Visible Passes

Search period start: 28 May 2017 00:00
Search period end: 07 June 2017 00:00
Orbit: 402 x 408 km, 51.6° (Epoch: 28 May)

Date Brightness Start Highest point End Pass type
(mag) Time Alt. Az. Time Alt. Az. Time Alt. Az.
28 May -0.6 01:56:34 10° NNW 01:57:37 14° N 01:57:37 14° N visible
28 May -0.7 21:48:56 10° WNW 21:51:06 16° NNW 21:53:17 10° NNE visible
29 May -0.4 01:05:03 10° N 01:06:26 12° NNE 01:06:26 12° NNE visible
30 May -0.4 21:42:56 10° NNW 21:43:53 11° NNW 21:44:48 10° N visible
31 May -0.6 00:56:45 10° NNW 00:57:35 14° N 00:57:35 14° N visible
01 Jun -0.8 00:05:06 10° NNW 00:06:53 14° NNE 00:07:01 14° NNE visible
01 Jun -0.6 23:13:46 10° N 23:14:29 10° NNE 23:15:11 10° NNE visible
02 Jun -0.6 00:48:39 10° NW 00:49:08 13° NNW 00:49:08 13° NNW visible
02 Jun -1.2 23:56:49 10° NNW 23:58:39 20° N 23:58:39 20° N visible
03 Jun -1.2 23:05:05 10° NNW 23:07:09 15° NNE 23:08:11 14° NE visible
04 Jun -0.5 00:40:45 10° NW 00:40:50 10° NW 00:40:50 10° NW visible
04 Jun -0.9 22:13:32 10° N 22:14:44 11° NNE 22:15:56 10° NE visible
04 Jun -1.5 23:48:43 10° NW 23:50:24 25° NNW 23:50:24 25° NNW visible
05 Jun -2.1 22:56:48 10° NNW 22:59:39 26° NNE 23:00:00 26° NE visible
06 Jun -1.4 22:04:58 10° NNW 22:07:17 18° NNE 22:09:36 10° ENE visible
06 Jun -1.6 23:40:48 10° NW 23:42:17 24° WNW 23:42:17 24° WNW visible
